• en France
  • Liste des pays
  • À 7 jours
  • Température de l'eau
  • Carte satellitaire
  • Carte météo
  • Widgets météo
  • user-avatar
    Se connecter

    Météo par heure à Loubomo

    Ce jour, 18 Février, Dimanche

    Heure Température Précipitation Vent Pression Humidité
    00:00 +24°C° 0 mm 1 m/s 699 mmHg 75%
    01:00 +24°C° 0 mm 1 m/s 699 mmHg 80%
    02:00 +23°C° 0 mm 1 m/s 699 mmHg 84%
    03:00 +23°C° 0 mm 1 m/s 699 mmHg 88%
    04:00 +23°C° 0 mm 1 m/s 699 mmHg 91%
    05:00 +22°C° 0 mm 1 m/s 699 mmHg 92%
    06:00 +22°C° 0 mm 1 m/s 699 mmHg 93%
    07:00 +22°C° 0 mm 1 m/s 700 mmHg 93%
    08:00 +25°C° 0 mm 1 m/s 700 mmHg 81%
    09:00 +28°C° 0 mm 1 m/s 701 mmHg 68%
    10:00 +30°C° 0 mm 2 m/s 702 mmHg 56%
    11:00 +32°C° 0 mm 1 m/s 701 mmHg 48%
    12:00 +34°C° 0 mm 1 m/s 700 mmHg 41%
    13:00 +36°C° 0 mm 1 m/s 700 mmHg 33%
    14:00 +35°C° 0 mm 1 m/s 699 mmHg 34%
    15:00 +34°C° 0 mm 1 m/s 699 mmHg 35%
    16:00 +32°C° 0 mm 0 m/s 698 mmHg 36%
    17:00 +32°C° 0 mm 1 m/s 698 mmHg 42%
    18:00 +30°C° 0 mm 1 m/s 698 mmHg 48%
    19:00 +28°C° 0 mm 1 m/s 698 mmHg 53%
    20:00 +27°C° 0 mm 1 m/s 698 mmHg 58%
    21:00 +27°C° 0 mm 2 m/s 698 mmHg 62%
    22:00 +26°C° 0 mm 2 m/s 699 mmHg 66%
    23:00 +25°C° 0 mm 2 m/s 699 mmHg 71%

    Demain, 19 Février, Lundi

    Heure Température Précipitation Vent Pression Humidité
    00:00 +24°C° 0 mm 1 m/s 699 mmHg 76%
    01:00 +24°C° 0 mm 1 m/s 698 mmHg 81%
    02:00 +23°C° 0,5 mm 1 m/s 698 mmHg 86%
    03:00 +22°C° 0,5 mm 1 m/s 698 mmHg 90%
    04:00 +22°C° 0,5 mm 1 m/s 698 mmHg 95%
    05:00 +22°C° 0 mm 1 m/s 699 mmHg 95%
    06:00 +22°C° 0 mm 1 m/s 699 mmHg 95%
    07:00 +22°C° 0 mm 1 m/s 700 mmHg 95%
    08:00 +25°C° 0 mm 1 m/s 700 mmHg 82%
    09:00 +27°C° 0 mm 1 m/s 701 mmHg 69%
    10:00 +29°C° 0 mm 2 m/s 701 mmHg 56%
    11:00 +31°C° 0 mm 2 m/s 701 mmHg 49%
    12:00 +33°C° 0 mm 1 m/s 700 mmHg 41%
    13:00 +36°C° 0 mm 1 m/s 699 mmHg 33%
    14:00 +35°C° 0 mm 1 m/s 699 mmHg 35%
    15:00 +33°C° 0 mm 1 m/s 698 mmHg 38%
    16:00 +32°C° 0 mm 1 m/s 697 mmHg 41%
    17:00 +31°C° 0,2 mm 1 m/s 697 mmHg 48%
    18:00 +29°C° 0,2 mm 1 m/s 698 mmHg 56%
    19:00 +27°C° 0,2 mm 2 m/s 698 mmHg 64%
    20:00 +26°C° 0 mm 2 m/s 699 mmHg 69%
    21:00 +26°C° 0 mm 2 m/s 699 mmHg 73%
    22:00 +25°C° 0 mm 2 m/s 700 mmHg 78%
    23:00 +24°C° 0 mm 1 m/s 699 mmHg 82%

    Après-demain, 20 Février, Mardi

    Heure Température Précipitation Vent Pression Humidité
    00:00 +24°C° 0 mm 1 m/s 699 mmHg 85%
    01:00 +21°C° 0 mm 0 m/s 699 mmHg 89%
    02:00 +21°C° 0,1 mm 0 m/s 699 mmHg 91%
    03:00 +22°C° 0,1 mm 1 m/s 699 mmHg 93%
    04:00 +22°C° 0,1 mm 1 m/s 698 mmHg 95%
    05:00 +22°C° 0 mm 1 m/s 699 mmHg 95%
    06:00 +20°C° 0 mm 0 m/s 699 mmHg 94%
    07:00 +20°C° 0 mm 0 m/s 699 mmHg 94%
    08:00 +25°C° 0 mm 1 m/s 700 mmHg 81%
    09:00 +27°C° 0 mm 1 m/s 700 mmHg 69%
    10:00 +30°C° 0 mm 1 m/s 701 mmHg 56%
    11:00 +32°C° 0 mm 1 m/s 700 mmHg 50%
    12:00 +34°C° 0 mm 1 m/s 700 mmHg 43%
    13:00 +35°C° 0 mm 1 m/s 699 mmHg 37%
    14:00 +34°C° 0,1 mm 1 m/s 698 mmHg 41%
    15:00 +33°C° 0,1 mm 1 m/s 697 mmHg 45%
    16:00 +32°C° 0,1 mm 1 m/s 696 mmHg 49%
    17:00 +30°C° 0 mm 1 m/s 697 mmHg 56%
    18:00 +28°C° 0 mm 1 m/s 697 mmHg 63%
    19:00 +27°C° 0 mm 1 m/s 697 mmHg 70%
    20:00 +26°C° 0 mm 2 m/s 698 mmHg 73%
    21:00 +26°C° 0 mm 2 m/s 698 mmHg 76%
    22:00 +25°C° 0 mm 2 m/s 699 mmHg 79%
    23:00 +24°C° 0 mm 2 m/s 698 mmHg 82%

    21 Février, Mercredi

    Heure Température Précipitation Vent Pression Humidité
    00:00 +24°C° 0 mm 1 m/s 698 mmHg 85%
    01:00 +23°C° 0 mm 1 m/s 698 mmHg 88%
    02:00 +23°C° 0 mm 1 m/s 698 mmHg 90%
    03:00 +22°C° 0 mm 1 m/s 698 mmHg 92%
    04:00 +22°C° 0 mm 1 m/s 698 mmHg 94%
    05:00 +22°C° 0 mm 1 m/s 698 mmHg 94%
    06:00 +22°C° 0 mm 1 m/s 699 mmHg 94%
    07:00 +22°C° 0 mm 1 m/s 699 mmHg 93%
    08:00 +25°C° 0 mm 1 m/s 699 mmHg 81%
    09:00 +28°C° 0 mm 1 m/s 700 mmHg 68%
    10:00 +30°C° 0 mm 1 m/s 701 mmHg 55%
    11:00 +32°C° 0 mm 1 m/s 700 mmHg 49%
    12:00 +34°C° 0 mm 1 m/s 699 mmHg 43%
    13:00 +35°C° 0 mm 1 m/s 698 mmHg 37%
    14:00 +34°C° 0 mm 1 m/s 698 mmHg 40%
    15:00 +33°C° 0 mm 1 m/s 697 mmHg 43%
    16:00 +32°C° 0 mm 1 m/s 696 mmHg 46%
    17:00 +31°C° 0 mm 1 m/s 696 mmHg 52%
    18:00 +29°C° 0 mm 1 m/s 696 mmHg 57%
    19:00 +28°C° 0 mm 1 m/s 697 mmHg 63%
    20:00 +27°C° 0 mm 1 m/s 697 mmHg 66%
    21:00 +27°C° 0 mm 2 m/s 698 mmHg 68%
    22:00 +26°C° 0 mm 2 m/s 698 mmHg 71%
    23:00 +26°C° 0 mm 2 m/s 698 mmHg 75%

    22 Février, Jeudi

    Heure Température Précipitation Vent Pression Humidité
    00:00 +25°C° 0 mm 2 m/s 698 mmHg 79%
    01:00 +24°C° 0 mm 2 m/s 697 mmHg 84%
    02:00 +24°C° 0 mm 1 m/s 697 mmHg 87%
    03:00 +23°C° 0 mm 1 m/s 697 mmHg 90%
    04:00 +21°C° 0 mm 0 m/s 697 mmHg 93%
    05:00 +21°C° 0 mm 0 m/s 698 mmHg 93%
    06:00 +21°C° 0 mm 0 m/s 698 mmHg 93%
    07:00 +21°C° 0 mm 0 m/s 699 mmHg 93%
    08:00 +25°C° 0 mm 1 m/s 699 mmHg 83%
    09:00 +27°C° 0 mm 1 m/s 700 mmHg 72%
    10:00 +28°C° 0 mm 2 m/s 700 mmHg 62%
    11:00 +30°C° 0 mm 2 m/s 699 mmHg 56%
    12:00 +32°C° 0 mm 2 m/s 699 mmHg 49%
    13:00 +35°C° 0 mm 2 m/s 698 mmHg 43%
    14:00 +33°C° 0 mm 1 m/s 697 mmHg 43%
    15:00 +33°C° 0 mm 1 m/s 697 mmHg 44%
    16:00 +33°C° 0 mm 1 m/s 696 mmHg 45%
    17:00 +31°C° 0 mm 1 m/s 696 mmHg 50%
    18:00 +30°C° 0 mm 1 m/s 697 mmHg 56%
    19:00 +28°C° 0 mm 1 m/s 697 mmHg 61%
    20:00 +27°C° 0,1 mm 1 m/s 697 mmHg 68%
    21:00 +26°C° 0,1 mm 1 m/s 697 mmHg 74%
    22:00 +25°C° 0,1 mm 1 m/s 698 mmHg 80%
    23:00 +24°C° 0 mm 1 m/s 697 mmHg 84%

    23 Février, Vendredi

    Heure Température Précipitation Vent Pression Humidité
    00:00 +24°C° 0 mm 1 m/s 697 mmHg 87%
    01:00 +23°C° 0 mm 1 m/s 697 mmHg 91%
    02:00 +23°C° 0 mm 1 m/s 697 mmHg 93%
    03:00 +23°C° 0 mm 1 m/s 697 mmHg 95%
    04:00 +20°C° 0 mm 0 m/s 697 mmHg 97%
    05:00 +20°C° 0 mm 0 m/s 697 mmHg 96%
    06:00 +21°C° 0 mm 0 m/s 698 mmHg 95%
    07:00 +21°C° 0 mm 0 m/s 698 mmHg 95%
    08:00 +25°C° 0 mm 1 m/s 699 mmHg 83%
    09:00 +27°C° 0 mm 1 m/s 699 mmHg 71%
    10:00 +29°C° 0 mm 1 m/s 700 mmHg 59%
    11:00 +32°C° 0 mm 1 m/s 700 mmHg 51%
    12:00 +35°C° 0 mm 1 m/s 699 mmHg 44%
    13:00 +35°C° 0 mm 0 m/s 699 mmHg 36%
    14:00 +35°C° 0,1 mm 1 m/s 698 mmHg 43%
    15:00 +33°C° 0,1 mm 1 m/s 698 mmHg 49%
    16:00 +31°C° 0,1 mm 1 m/s 697 mmHg 55%
    17:00 +29°C° 0,2 mm 1 m/s 697 mmHg 64%
    18:00 +27°C° 0,2 mm 1 m/s 697 mmHg 73%
    19:00 +25°C° 0,2 mm 1 m/s 697 mmHg 83%
    20:00 +25°C° 0 mm 1 m/s 697 mmHg 85%
    21:00 +24°C° 0 mm 1 m/s 697 mmHg 87%
    22:00 +22°C° 0 mm 0 m/s 698 mmHg 89%
    23:00 +24°C° 0,1 mm 1 m/s 698 mmHg 89%
    Voir plus